Flag for Aruba Weather past 2 weeks in Oranjestad, Aruba

Now
84 °F

Passing clouds.


Feels Like: 92 °F
Forecast: 80 / 89 °F
Wind: 16 mph from Northeast

Location: Queen Beatrix Airport - Aruba

Current Time: Aug 21, 2014 at 8:06:16 PM

Latest Report: Aug 21, 2014 at 7:00 PM


Visibility: N/A

Pressure: 29.83 "Hg

Humidity: 74%

Dew point: 75 °F

Location of OranjestadLocation

Historic Weather in Oranjestad — Graph

°F

Oranjestad temperature yesterday

Maximum temperature yesterday: 90 °F (at 12:00 PM)
Minimum temperature yesterday: 81 °F (at 6:00 AM)
Average temperature yesterday: 85 °F

Past Weeks' High & Low Weather Summary

 TemperatureHumidityPressure
High91 °F (Aug 7, 1:00 PM)89% (Aug 16, 11:00 PM)29.98 "Hg (Aug 16, 11:00 PM)
Low81 °F (Aug 7, 5:00 AM)52% (Aug 16, 1:45 PM)29.80 "Hg (Aug 7, 6:00 PM)
Average85 °F72%29.89 "Hg
* Reported Aug 6 7:00 PM — Aug 21 7:00 PM, Oranjestad, Weather by CustomWeather, © 2014

Note: Actual official high and low records may vary slightly from our data, if they occured in-between our weather recording intervals... More about our weather records

Advertising

Oranjestad weather history for previous 24 hours

 ConditionsComfort  
Time TempWeatherWind HumidityBarometerVisibility
7:00 PM
Aug 21
84 °FPassing clouds.16 mph74%29.83 "HgN/A
6:00 PM86 °FPassing clouds.17 mph70%29.83 "HgN/A
5:00 PM88 °FPassing clouds.18 mph62%29.83 "HgN/A
4:00 PM90 °FPassing clouds.20 mph55%29.83 "HgN/A
3:00 PM90 °FPassing clouds.18 mph55%29.83 "HgN/A
2:00 PM91 °FPassing clouds.18 mph52%29.86 "HgN/A
1:00 PM91 °FPassing clouds.16 mph52%29.89 "HgN/A
12:00 PM90 °FScattered clouds.18 mph59%29.92 "HgN/A
11:00 AM90 °FScattered clouds.17 mph59%29.92 "HgN/A
10:00 AM88 °FScattered clouds.17 mph66%29.92 "HgN/A
9:00 AM86 °FScattered clouds.18 mph70%29.92 "HgN/A
8:00 AM84 °FPassing clouds.15 mph74%29.92 "HgN/A
6:00 AM81 °FPassing clouds.9 mph84%29.89 "HgN/A
4:00 AM81 °FPassing clouds.12 mph84%29.89 "HgN/A
3:00 AM82 °FPassing clouds.9 mph84%29.89 "HgN/A
2:00 AM82 °FPassing clouds.14 mph79%29.92 "HgN/A
1:00 AM82 °FPassing clouds.14 mph79%29.92 "HgN/A
11:00 PM
Aug 20
82 °FPassing clouds.17 mph79%29.95 "HgN/A
10:00 PM82 °FPassing clouds.18 mph79%29.92 "HgN/A
9:00 PM82 °FPassing clouds.18 mph79%29.89 "HgN/A
8:00 PM84 °FPassing clouds.20 mph70%29.89 "HgN/A
Weather by CustomWeather, © 2014

See weather overviewHow to use our weather pages